Location: Demmingen
(48.6757°N, 10.4375°E)
Time: 23:55:27
(UTC+00:00)

Cosmos 1745 Rocket - Pass Details

Date: 17 August 2024
Orbit: 951 x 998 km, 83.0° (Epoch: 08 September)

Event Time Altitude Azimuth Distance (km) Brightness Sun altitude
Rises 02:01:09 0° 350° (N) 3,642 7.6 -18.8°
Reaches altitude 10° 02:03:38 10° 350° (N) 2,695 6.8 -18.5°
Maximum altitude 02:09:49 85° 263° (W) 970 3.9 -17.8°
Enters shadow 02:15:43 11° 175° (S) 2,598 5.9 -17.1°
